FDX5661 KMEM-CYYC

Flight info

Callsign FDX5661
Flight time N/A
Altitude 34000
Route JTEEE5 ODATE DCT KOOOP DCT KK54I DCT WELKY DCT KP78E DCT FSD DCT KP03A/N0451F360 DCT KP09Y DCT KU18U DCT PEMDU Q832 EBGAL EBGAL7
Aircraft A306/H-SDE3FGHIRWY/LB1

Departure

Time N/A
Airport Memphis International Airport (KMEM)

Arrival

Time 2026-04-30 20:02
Airport Calgary International Airport (CYYC)
Time Latitude Longitude Altitude Speed Heading
2026-04-30 19:05 47.91128 -105.74557 34223 ft 442 kts 303°
2026-04-30 19:06 47.96813 -105.90815 34227 ft 443 kts 303°
2026-04-30 19:06 48.01158 -106.02969 34237 ft 440 kts 307°
2026-04-30 19:07 48.06039 -106.14563 34239 ft 439 kts 309°
2026-04-30 19:08 48.12553 -106.29955 34227 ft 440 kts 308°
2026-04-30 19:09 48.17423 -106.41683 34206 ft 440 kts 309°
2026-04-30 19:09 48.20649 -106.49486 34201 ft 440 kts 309°
2026-04-30 19:10 48.27090 -106.65121 34202 ft 441 kts 309°
2026-04-30 19:11 48.31890 -106.76827 34209 ft 441 kts 309°
2026-04-30 19:12 48.35098 -106.84677 34215 ft 441 kts 309°
2026-04-30 19:12 48.38302 -106.92542 34226 ft 441 kts 309°
2026-04-30 19:13 48.44689 -107.08292 34238 ft 441 kts 309°
2026-04-30 19:14 48.47875 -107.16190 34237 ft 441 kts 309°
2026-04-30 19:14 48.51053 -107.24088 34236 ft 441 kts 309°
2026-04-30 19:15 48.54224 -107.31990 34235 ft 441 kts 309°
2026-04-30 19:15 48.58985 -107.43897 34231 ft 441 kts 309°
2026-04-30 19:16 48.62144 -107.51829 34233 ft 441 kts 309°
2026-04-30 19:17 48.66878 -107.63756 34227 ft 441 kts 309°
2026-04-30 19:17 48.71604 -107.75714 34225 ft 441 kts 309°
2026-04-30 19:18 48.76316 -107.87696 34244 ft 441 kts 309°
2026-04-30 19:19 48.79449 -107.95693 34211 ft 442 kts 309°
2026-04-30 19:19 48.84149 -108.07728 34229 ft 442 kts 309°
2026-04-30 19:20 48.87278 -108.15770 34219 ft 442 kts 309°
2026-04-30 19:21 48.91956 -108.27844 34216 ft 442 kts 309°
2026-04-30 19:22 48.98187 -108.44018 34213 ft 443 kts 309°
2026-04-30 19:23 49.07250 -108.68612 34216 ft 445 kts 307°
2026-04-30 19:24 49.11727 -108.81049 34213 ft 446 kts 307°
2026-04-30 19:25 49.19182 -109.01829 34219 ft 447 kts 307°
2026-04-30 19:26 49.25149 -109.18583 34214 ft 447 kts 307°
2026-04-30 19:27 49.29583 -109.31096 34220 ft 448 kts 307°
2026-04-30 19:28 49.34025 -109.43698 34220 ft 448 kts 306°
2026-04-30 19:29 49.39930 -109.60554 34221 ft 449 kts 306°
2026-04-30 19:30 49.45823 -109.77478 34224 ft 449 kts 306°
2026-04-30 19:31 49.51696 -109.94464 34224 ft 450 kts 306°
2026-04-30 19:31 49.56087 -110.07235 34223 ft 450 kts 306°
2026-04-30 19:32 49.59008 -110.15762 34218 ft 450 kts 306°
2026-04-30 19:32 49.61928 -110.24319 34222 ft 450 kts 305°
2026-04-30 19:33 49.64835 -110.32870 34221 ft 451 kts 305°
2026-04-30 19:33 49.67743 -110.41451 34226 ft 451 kts 305°
2026-04-30 19:34 49.70645 -110.50041 34224 ft 451 kts 305°
2026-04-30 19:35 49.74984 -110.62937 34215 ft 451 kts 305°
2026-04-30 19:35 49.77855 -110.71506 34211 ft 451 kts 304°
2026-04-30 19:36 49.80734 -110.80132 34205 ft 451 kts 304°
2026-04-30 19:36 49.85046 -110.93107 34206 ft 451 kts 304°
2026-04-30 19:37 49.87910 -111.01758 34203 ft 451 kts 304°
2026-04-30 19:37 49.90770 -111.10426 34215 ft 451 kts 304°
2026-04-30 19:38 49.93625 -111.19111 34214 ft 451 kts 304°
2026-04-30 19:38 49.96469 -111.27797 34218 ft 451 kts 303°
2026-04-30 19:39 49.99420 -111.36366 34205 ft 449 kts 306°
2026-04-30 19:39 50.01979 -111.43386 34207 ft 449 kts 306°
2026-04-30 19:40 50.05049 -111.51840 34216 ft 449 kts 306°
2026-04-30 19:40 50.08107 -111.60302 34212 ft 448 kts 306°
2026-04-30 19:41 50.11155 -111.68769 34211 ft 448 kts 306°
2026-04-30 19:41 50.14199 -111.77256 34208 ft 448 kts 305°
2026-04-30 19:42 50.17234 -111.85748 34210 ft 448 kts 305°
2026-04-30 19:42 50.20264 -111.94250 34066 ft 446 kts 305°
2026-04-30 19:43 50.21751 -111.98443 33743 ft 435 kts 305°
2026-04-30 19:43 50.23205 -112.02550 33202 ft 430 kts 305°
2026-04-30 19:43 50.24648 -112.06621 32623 ft 426 kts 305°
2026-04-30 19:44 50.27487 -112.14650 31521 ft 418 kts 304°
2026-04-30 19:44 50.28884 -112.18612 30985 ft 415 kts 304°
2026-04-30 19:44 50.30272 -112.22554 30437 ft 412 kts 304°
2026-04-30 19:44 50.31645 -112.26458 29838 ft 409 kts 304°
2026-04-30 19:45 50.32990 -112.30290 29274 ft 405 kts 304°
2026-04-30 19:45 50.34336 -112.34131 28731 ft 401 kts 304°
2026-04-30 19:45 50.35683 -112.37983 28195 ft 397 kts 304°
2026-04-30 19:45 50.37005 -112.41767 27663 ft 394 kts 304°
2026-04-30 19:46 50.38297 -112.45467 27157 ft 391 kts 304°
2026-04-30 19:46 50.39598 -112.49201 26625 ft 389 kts 304°
2026-04-30 19:46 50.40886 -112.52904 26098 ft 387 kts 303°
2026-04-30 19:46 50.42173 -112.56605 25560 ft 386 kts 303°
2026-04-30 19:47 50.43455 -112.60301 25038 ft 385 kts 303°
2026-04-30 19:47 50.44318 -112.62792 24667 ft 384 kts 303°
2026-04-30 19:47 50.46008 -112.67675 23919 ft 384 kts 303°
2026-04-30 19:47 50.47280 -112.71357 23289 ft 384 kts 303°
2026-04-30 19:48 50.48549 -112.75039 22694 ft 383 kts 303°
2026-04-30 19:48 50.49814 -112.78712 22125 ft 380 kts 302°
2026-04-30 19:48 50.51066 -112.82355 21547 ft 378 kts 302°
2026-04-30 19:48 50.52313 -112.85988 20949 ft 377 kts 302°
2026-04-30 19:49 50.53555 -112.89610 20367 ft 376 kts 302°
2026-04-30 19:49 50.56024 -112.96824 19181 ft 374 kts 301°
2026-04-30 19:49 50.57257 -113.00431 18575 ft 374 kts 301°
2026-04-30 19:50 50.58487 -113.04035 17919 ft 373 kts 301°
2026-04-30 19:50 50.59706 -113.07616 17311 ft 371 kts 301°
2026-04-30 19:50 50.60922 -113.11192 16803 ft 365 kts 300°
2026-04-30 19:50 50.62118 -113.14715 16139 ft 365 kts 300°
2026-04-30 19:51 50.63303 -113.18214 15652 ft 360 kts 300°
2026-04-30 19:51 50.64453 -113.21621 15487 ft 347 kts 300°
2026-04-30 19:51 50.65548 -113.24865 15391 ft 332 kts 300°
2026-04-30 19:51 50.66632 -113.28074 15145 ft 324 kts 300°
2026-04-30 19:52 50.67677 -113.31175 14941 ft 315 kts 300°
2026-04-30 19:52 50.68675 -113.34139 14784 ft 305 kts 300°
2026-04-30 19:52 50.69743 -113.36955 14645 ft 294 kts 310°
2026-04-30 19:52 50.71143 -113.39207 14526 ft 284 kts 319°
2026-04-30 19:53 50.72622 -113.41232 14255 ft 280 kts 320°
2026-04-30 19:53 50.74109 -113.43224 13897 ft 280 kts 320°
2026-04-30 19:53 50.75590 -113.45217 13570 ft 278 kts 320°
2026-04-30 19:53 50.77052 -113.47195 13237 ft 276 kts 320°
2026-04-30 19:54 50.78508 -113.49172 12908 ft 275 kts 320°
2026-04-30 19:54 50.79957 -113.51144 12585 ft 274 kts 320°
2026-04-30 19:54 50.81391 -113.53101 12249 ft 272 kts 320°
2026-04-30 19:54 50.82769 -113.54980 11937 ft 270 kts 319°
2026-04-30 19:55 50.84053 -113.56735 11649 ft 269 kts 319°
2026-04-30 19:55 50.85466 -113.58667 11341 ft 268 kts 319°
2026-04-30 19:55 50.86873 -113.60592 11020 ft 266 kts 319°
2026-04-30 19:55 50.88272 -113.62507 10710 ft 265 kts 319°
2026-04-30 19:56 50.89663 -113.64415 10402 ft 263 kts 319°
2026-04-30 19:56 50.91040 -113.66307 10099 ft 261 kts 319°
2026-04-30 19:56 50.92395 -113.68138 9723 ft 254 kts 322°
2026-04-30 19:56 50.93877 -113.69573 9339 ft 250 kts 332°
2026-04-30 19:57 50.95442 -113.70784 8980 ft 250 kts 334°
2026-04-30 19:57 50.97024 -113.71964 8543 ft 251 kts 334°
2026-04-30 19:57 50.98579 -113.73124 8090 ft 243 kts 334°
2026-04-30 19:57 51.00084 -113.74277 7638 ft 236 kts 332°
2026-04-30 19:58 51.01461 -113.75610 7206 ft 226 kts 323°
2026-04-30 19:58 51.02628 -113.77186 6968 ft 218 kts 315°
2026-04-30 19:58 51.03621 -113.78977 6694 ft 216 kts 304°
2026-04-30 19:58 51.04395 -113.81000 6422 ft 213 kts 299°
2026-04-30 19:59 51.05142 -113.83013 6146 ft 210 kts 300°
2026-04-30 19:59 51.05866 -113.84976 5858 ft 202 kts 300°
2026-04-30 19:59 51.07252 -113.88767 5343 ft 191 kts 300°
2026-04-30 20:00 51.07889 -113.90510 5121 ft 175 kts 300°
2026-04-30 20:00 51.08469 -113.92099 4880 ft 160 kts 300°
2026-04-30 20:00 51.09019 -113.93610 4672 ft 157 kts 299°
2026-04-30 20:00 51.09564 -113.95111 4407 ft 157 kts 300°
2026-04-30 20:01 51.10669 -113.98144 3969 ft 159 kts 300°
2026-04-30 20:01 51.11232 -113.99674 3787 ft 162 kts 299°
2026-04-30 20:01 51.11789 -114.01219 3580 ft 154 kts 299°
2026-04-30 20:02 51.12605 -114.03447 3564 ft 47 kts 301°
2026-04-30 20:02 51.12626 -114.03644 3560 ft 12 kts 230°
2026-04-30 20:03 51.12492 -114.03649 3559 ft 9 kts 167°
2026-04-30 20:03 51.12437 -114.03618 3560 ft 8 kts 152°
2026-04-30 20:03 51.12397 -114.03565 3563 ft 7 kts 134°
2026-04-30 20:03 51.12365 -114.03508 3556 ft 7 kts 133°
2026-04-30 20:04 51.12335 -114.03459 3558 ft 6 kts 133°
2026-04-30 20:04 51.12312 -114.03376 3559 ft 10 kts 101°
2026-04-30 20:04 51.12298 -114.03267 3564 ft 10 kts 101°
2026-04-30 20:05 51.12236 -114.03110 3560 ft 8 kts 133°
2026-04-30 20:05 51.12208 -114.03086 3556 ft 2 kts 174°
2026-04-30 20:05 51.12199 -114.03090 3556 ft 0 kts 194°
2026-04-30 20:06 51.12184 -114.03102 3561 ft 5 kts 208°
2026-04-30 20:06 51.12161 -114.03128 3563 ft 2 kts 224°
2026-04-30 20:06 51.12156 -114.03136 3558 ft 0 kts 225°